sat.trackr.live / text

‹ back to catalog

STARLINK-1566

NORAD 46079 · 2020-055BE

PAYLOAD ACTIVE UNKNOWN

§ Identity

Operator
Country
US
Launch date
2020-08-07
Launch site
AFETR
Launch vehicle
Mass (kg)
RCS (m²)

Purposes: comms

External: N2YO · Heavens-Above · Gunter

§ Orbital elements

Epoch: 2026-09-13T03:43:20.316000Z

Period
94.01 min
Inclination
53.1597°
Eccentricity
0.0001330
Mean motion
15.31706936 rev/d
Perigee alt
469.8 km
Apogee alt
471.6 km
Semi-major
6,848.9 km
B*
1.0519e-4
RAAN
308.7223°
Arg perigee
85.4206°
Mean anomaly
274.6947°
Rev number
33,796

§ Raw data

STARLINK-15661 46079U 20055BE  26256.15509625  .00002901  00000+0  10519-3 0  99922 46079  53.1597 308.7223 0001330  85.4206 274.6947 15.31706936337963

JSON: /api/v1/satellites/46079 · /tle

For live sub-satellite position, see the globe view (requires WebGL).

§ Visibility from observer

Set your observer location to see the next 7 days of passes ≥ 10°. The values pass through the URL so the page stays shareable.

No JS? Fill the form by hand. The geolocation button needs JavaScript.